Home   Weather   Geelong   Past weeks

Flag for Australia Past Weather in Geelong, Victoria, Australia — Yesterday and Last 2 Weeks

Now
54 °F

Cool.


Feels Like: 51 °F
Forecast: 48 / 60 °F
Wind: 8 mph from Northwest

Location: Geelong Airport Aws

Current Time: Oct 1, 2016 at 4:48:42 AM

Latest Report: Oct 1, 2016 at 3:00 AM


Visibility: N/A

Pressure: 29.41 "Hg

Humidity: 94%

Dew Point: 52 °F

Location of GeelongLocation

Past Weather in Geelong — Graph

°F

Geelong Temperature Yesterday

Maximum temperature yesterday: 59 °F (at 12:00 PM)
Minimum temperature yesterday: 49 °F (at 5:00 AM)
Average temperature yesterday: 53 °F

High & Low Weather Summary for the Past Weeks

 TemperatureHumidityPressure
High69 °F (Sep 17, 2:00 PM)96% (Sep 19, 8:00 AM)30.11 "Hg (Sep 19, 8:00 AM)
Low40 °F (Sep 23, 6:00 AM)43% (Sep 17, 3:00 PM)29.15 "Hg (Sep 29, 5:00 AM)
Average53 °F81%29.79 "Hg
* Reported Sep 16 3:00 AM — Oct 1 3:00 AM, Geelong, Weather by CustomWeather, © 2016

Note: Actual official high and low records may vary slightly from our data, if they occured in-between our weather recording intervals... More about our weather records

Advertising

Geelong Weather History for the Previous 24 Hours

Scroll right to see more
 ConditionsComfort  
Time TempWeatherWind HumidityBarometerVisibility
3:00 AM
Sat, Oct 1
54 °FCool.8 mph94%29.41 "HgN/A
2:00 AM54 °FCool.8 mph94%29.41 "HgN/A
12:00 AM52 °FCool.6 mph94%29.41 "HgN/A
11:00 PM
Fri, Sep 30
52 °FCool.3 mph94%29.44 "HgN/A
9:00 PM51 °FCool.2 mph94%29.44 "HgN/A
8:00 PM51 °FCool.2 mph94%29.41 "HgN/A
6:00 PM53 °FCool.3 mph93%29.38 "HgN/A
5:00 PM53 °FCool.6 mph93%29.38 "HgN/A
3:00 PM57 °FCool.8 mph72%29.32 "HgN/A
2:00 PM59 °FCool.9 mph70%29.32 "HgN/A
12:00 PM59 °FCool.5 mph69%29.29 "HgN/A
11:00 AM57 °FCool.2 mph69%29.29 "HgN/A
9:00 AM55 °FCool.3 mph80%29.26 "HgN/A
8:00 AM52 °FCool.5 mph92%29.23 "HgN/A
6:00 AM50 °FCool.3 mph93%29.21 "HgN/A
5:00 AM49 °FCool.3 mph94%29.18 "HgN/A
Weather by CustomWeather, © 2016

See weather overviewHow to use our weather pages